Regional Weather Roundup
Issued by NWS Goodland, KS

Home | Current Version | Previous Version | Text Only | Print | Product List | Glossary Off
Versions: 1 2 3 4 5 6 7 8 9 10 11 12 13 14 15 16 17 18 19 20 21 22 23 24 25 26 27 28 29 30 31 32 33 34 35 36 37 38 39 40 41 42 43 44 45 46 47 48 49 50

058
ASUS43 KGLD 240559
RWRGLD

GOODLAND FORECAST AREA HOURLY WEATHER ROUNDUP
NATIONAL WEATHER SERVICE GOODLAND KS
1200 AM MDT TUE MAY 24 2016

...OFFICIAL OBSERVATIONS...

CITY           SKY/WX    TMP DP  RH WIND       PRES   REMARKS
GOODLAND KS    PTCLDY    55  49  80 N6        29.86R
HILL CITY KS   TSTM      68  62  81 SE9G28    29.80R
IMPERIAL NEB   PTCLDY    52  45  77 N5        29.85F
MCCOOK NEB     CLEAR     57  46  66 N14       29.83S
AKRON CO       CLOUDY    53  44  71 E6        29.92R
BURLINGTON CO  PTCLDY    55  46  71 NE13      29.88R
LIMON CO       PTCLDY    50  42  74 W10       29.95R
$$

...UNOFFICIAL OBSERVATIONS...

CITY           SKY/WX    TMP DP  RH WIND       PRES   REMARKS
COLBY KS       PTCLDY    59  57  94 N7        29.85S
LENORA KS        N/A     67  32  27 MISG        N/A
NORTON KS      CLEAR     63  54  72 N8        29.79F
SHARON SPRINGS   N/A     62  58  86 NE5         N/A
TRIBUNE KS     CLEAR     64  61  88 NE9       29.84S
KIT CARSON CO    N/A     60  51  72 MISG        N/A
YUMA CO          N/A     51  46  84 NE9         N/A
$$




USA.gov is the U.S. government's official web portal to all federal, state and local government web resources and services.